Home > Weather > Navi Mumbai > Past weeks

Flag for India Past Weather in Navi Mumbai, Maharashtra, India — Yesterday and Last 2 Weeks

Now
77 °F

Rain. Mostly cloudy.


Feels Like: 78 °F
Forecast: 78 / 82 °F
Wind: 3 mph from Northwest

Location: Mumbai / Santacruz

Current Time: Jul 29, 2016 at 2:02:19 AM

Latest Report: Jul 29, 2016 at 1:30 AM


Visibility: 1 mi

Pressure: 29.74 "Hg

Humidity: 100%

Dew Point: 77 °F

Location of Navi MumbaiLocation

Past Weather in Navi Mumbai — Graph

°F

Navi Mumbai Temperature Yesterday

Maximum temperature yesterday: 84 °F (at 1:30 PM)
Minimum temperature yesterday: 75 °F (at 6:30 AM)
Average temperature yesterday: 79 °F

High & Low Weather Summary for the Past Weeks

 TemperatureHumidityPressure
High86 °F (Jul 14, 10:30 AM)100% (Jul 19, 5:30 AM)29.83 "Hg (Jul 19, 5:30 AM)
Low75 °F (Jul 21, 3:30 PM)70% (Jul 16, 12:30 PM)29.59 "Hg (Jul 23, 4:00 PM)
Average81 °F88%29.70 "Hg
* Reported Jul 14 12:30 AM — Jul 29 1:00 AM, Navi Mumbai, Weather by CustomWeather, © 2016

Note: Actual official high and low records may vary slightly from our data, if they occured in-between our weather recording intervals... More about our weather records

Advertising

Navi Mumbai Weather History for the Previous 24 Hours

Scroll right to see more
 ConditionsComfort  
Time TempWeatherWind HumidityBarometerVisibility
1:00 AM
Fri, Jul 29
77 °FRain. Mostly cloudy.5 mph94%29.74 "Hg1 mi
12:30 AM77 °FLight rain. Mostly cloudy.3 mph94%29.74 "Hg1 mi
12:00 AM77 °FLight rain. Mostly cloudy.5 mph100%29.74 "Hg1 mi
11:30 PM
Thu, Jul 28
77 °FLight rain. Mostly cloudy.7 mph100%29.74 "Hg1 mi
11:00 PM77 °FLight rain. Mostly cloudy.5 mph100%29.77 "Hg1 mi
10:30 PM77 °FLight rain. Mostly cloudy.No wind94%29.77 "Hg1 mi
10:00 PM77 °FLight rain. Mostly cloudy.No wind94%29.77 "Hg1 mi
9:30 PM77 °FLight rain. Mostly cloudy.6 mph94%29.74 "Hg1 mi
9:00 PM77 °FLight rain. Mostly cloudy.9 mph94%29.74 "Hg2 mi
8:30 PM77 °FLight rain. Mostly cloudy.8 mph89%29.74 "Hg1 mi
8:00 PM77 °FDrizzle. Mostly cloudy.8 mph89%29.74 "Hg1 mi
7:30 PM77 °FThunderstorms. Broken clouds.10 mph89%29.71 "Hg1 mi
7:00 PM77 °FThunderstorms. Broken clouds.12 mph89%29.71 "Hg1 mi
6:30 PM81 °FScattered showers. Broken clouds.9 mph89%29.68 "Hg2 mi
6:00 PM81 °FBroken clouds.10 mph89%29.68 "Hg2 mi
5:30 PM82 °FBroken clouds.12 mph84%29.68 "Hg2 mi
5:00 PM84 °FBroken clouds.8 mph74%29.65 "Hg2 mi
4:30 PM84 °FBroken clouds.5 mph79%29.68 "Hg2 mi
4:00 PM82 °FBroken clouds.5 mph79%29.68 "Hg2 mi
3:30 PM82 °FBroken clouds.6 mph79%29.71 "Hg2 mi
3:00 PM81 °FBroken clouds.6 mph79%29.71 "Hg2 mi
2:30 PM81 °FScattered showers. Broken clouds.6 mph79%29.71 "Hg2 mi
2:00 PM81 °FScattered showers. Broken clouds.7 mph79%29.74 "Hg2 mi
1:30 PM84 °FScattered showers. Broken clouds.6 mph79%29.74 "Hg1 mi
1:00 PM82 °FBroken clouds.5 mph84%29.74 "Hg2 mi
12:30 PM82 °FBroken clouds.5 mph84%29.74 "Hg2 mi
12:00 PM82 °FBroken clouds.3 mph84%29.77 "Hg2 mi
11:30 AM81 °FBroken clouds.5 mph89%29.77 "Hg1 mi
11:00 AM81 °FMore clouds than sun.6 mph89%29.77 "Hg1 mi
10:30 AM81 °FDrizzle. More clouds than sun.5 mph84%29.77 "Hg1 mi
10:00 AM79 °FLight rain. More clouds than sun.No wind94%29.77 "Hg1 mi
9:30 AM79 °FLight rain. More clouds than sun.5 mph94%29.77 "Hg1 mi
9:00 AM77 °FLight rain. More clouds than sun.5 mph100%29.77 "Hg1 mi
8:30 AM77 °FRain. More clouds than sun.5 mph100%29.77 "Hg1 mi
8:00 AM77 °FRain. More clouds than sun.6 mph94%29.77 "Hg1 mi
7:30 AM77 °FScattered showers. More clouds than sun.5 mph94%29.74 "Hg1 mi
7:00 AM77 °FMore clouds than sun.3 mph94%29.74 "Hg1 mi
6:30 AM75 °FLight rain. Mostly cloudy.3 mph94%29.74 "Hg1 mi
6:00 AM77 °FLight rain. Mostly cloudy.6 mph94%29.71 "Hg1 mi
5:30 AM77 °FRain. Mostly cloudy.6 mph94%29.71 "Hg1 mi
5:00 AM77 °FRain. Mostly cloudy.3 mph94%29.71 "Hg1 mi
4:30 AM77 °FPartly cloudy.5 mph94%29.71 "Hg1 mi
4:00 AM77 °FLight rain. Partly cloudy.6 mph94%29.71 "Hg1 mi
3:30 AM77 °FPartly cloudy.5 mph94%29.71 "Hg2 mi
3:00 AM79 °FFog.5 mph94%29.71 "Hg1 mi
2:30 AM77 °FFog.6 mph94%29.71 "Hg1 mi
2:00 AM77 °FPartly cloudy.6 mph94%29.71 "Hg2 mi
Weather by CustomWeather, © 2016

See weather overviewHow to use our weather pages